星链-30753 (STARLINK-30753 )

导读

STARLINK-30753是美国SpaceX公司星链(Starlink)项目的卫星,于2023年10月30日发射入轨,运行在近地低轨道。作为星链卫星互联网星座的组成部分,它旨在为全球用户,尤其是地面网络覆盖空白的偏远地区、海洋及空中场景,提供高速低延迟的宽带互联服务,助力缩小数字鸿沟,推进全球信息化覆盖。星链项目计划部署数万颗低轨卫星,该星是项目大规模组网进程中的一员,不过星链密集部署也引发了太空交通安全、天文观测干扰等领域的争议担忧。

Basic Information
目录编号:
58175
目录名称:
STARLINK-30753
国际标识:
2023-167A
轨道中心:
EARTH
卫星名称:
星链-30753
卫星全名:
星链-30753 (STARLINK-30753 )
卫星状态:
在轨 (已飞行1040 天)
发射日期:
2023-10-30 UTC
国别 :
美国 (US)
星等 :
--
Orbit Information
数据来源 国际轨道数据 AOE轨道数据
星历时间 2026-09-03T13:05:23+0800
1天前
查看轨道信息
2026-09-01T22:00:00+0800
2天前
查看轨道信息
半长轴 6861.197km 6861.225km
偏心率 0.0001554 0.0001888
轨道倾角 43.001° 43.003°
近地点辐角 274.991° 301.683°
升交点赤经 220.962° 230.158°
平近点角 85.077° 90.989°
近地点 481.993km 481.792km
远地点 484.127km 484.384km
周期 94.267分钟 94.268分钟
每日圈数 15.275766 15.275672
Detailed Information
固有亮度:
5
最大亮度:
0.3
卫星平台:
Starlink v2.0 mini
覆盖范围:
全球
运营商:
太空探索技术公司
运营商所在国:
美国
制造商(研发单位):
太空探索技术公司
制造商所在国:
美国
使用方式:
暂无
Satellite Introduction
星链(Starlink)计划是由太空探索技术公司(SpaceX)提出的一个巨型低轨卫星互联网星座项目,计划在2019年至2024年间在太空搭建由约1.2万颗卫星组成的“星链”网络,其中1584颗将部署在地球上空550千米处的近地轨道,并从2020年开始工作。该卫星仍在工作。
2D Orbit Map
3D Orbit Map
Orbit Altitude Analysis Chart
Orbit Inclination Analysis Chart
Orbit Comprehensive Analysis Chart
View Comprehensive Chart
Conjunction Data List
Event ID Objects TCA Miss Dist (km) Collision Risk Probability Collision Risk Index (CRI) Action
CDM_260905-092605-301705-817521
2026-09-05T
09:26:11+0000
0.603 km
远距离
9.629737E-5 中风险 0.75
CDM_260905-073105-817506-801121
2026-09-05T
07:31:49+0000
0.662 km
远距离
6.51432E-5 中风险 0.71
CDM_260904-182705-817506-408021
2026-09-04T
18:27:19+0000
0.920 km
远距离
1.693676E-5 中风险 0.6
CDM_260905-090505-817506-801121
2026-09-05T
09:05:59+0000
1.046 km
极远距离
1.462108E-5 中风险 0.58
CDM_260904-165305-817506-408021
2026-09-04T
16:53:10+0000
0.961 km
远距离
1.462072E-5 中风险 0.58
CDM_260905-055705-817506-801121
2026-09-05T
05:57:40+0000
2.310 km
极远距离
1.379059E-6 低风险 0.38
CDM_260904-151905-817506-408021
2026-09-04T
15:19:01+0000
2.519 km
极远距离
9.282412E-7 极低风险 0.34
CDM_260904-200105-817506-408021
2026-09-04T
20:01:28+0000
2.536 km
极远距离
9.181019E-7 极低风险 0.34